CZ-4 DEB, 26199

Orbit data source: Space-Track

CZ-4 DEB, 26199 is space debris in SSO originally from a launch on Thu, 14 Oct 1999 UTC launched from the Taiyaun Space Center, China (TSC). Debris objects in space refer to the collection of defunct objects orbiting the Earth. Examples of debris include non-operational satellites, rocket bodies, and fragments generated from explosions, collisions, or faulty payload assembly.

Loading next visibility...
Identifier
26199, 1999-057CM
Orbit
SSO
Country
Flag of CNCN / PRC
Related business
Manufacturer
Unknown
Mission
Spacecraft
Bus & Motor
Unknown
Mass
Unknown
Launch date (UTC)
1999-10-14 (26 years ago)
Launch vehicle
Unknown
Launch site
Taiyaun Space Center, China (TSC)
Object type
Payload
Rocket body
Debris
Shape & HBR
Unknown shape, 0.1 m
Radar Cross Section
Small (<0.1 m²)

Expand to show TLE details & history
Last TLE update: 7 hours ago

TLE from 7 hours ago
0 CZ-4 DEB
1 26199U 99057CM  26038.14483995  .00006308  00000-0  10545-2 0  9993
2 26199  98.3555 109.4723 0061660 297.9351 121.8738 14.68974631366975
Epoch: 2026-02-07T03:28Z
TLE epoch observation values (Epoch: 2026-02-07T03:28:34.171Z)
Latitude
59.45142°
Longitude
-94.27357°
Altitude
697.55 km
Speed
7.501 km/s
True Right ascension
06h 20m 33s
True Declination
59° 17' 58"
Sunlit
Object was in full shadow at epoch
Visualization orbit readout
Latitude
Unknown
Longitude
Unknown
Altitude
Unknown
Speed
Unknown
Apparent Right ascension
Unknown
Apparent Declination
Unknown
Sunlit
N/A
Visualization observer readout
Local Sidereal Time
12:23:12
Azimuth
Unknown
Elevation
Unknown
Doppler factor
Unknown
Orbital elements
Apogee altitude
704.826 km
Perigee altitude
618.014 km
Semi-major axis
7,039.557 km
Eccentricity
0.00617
Inclination
98.3555°
RAAN
109.4723°
Arg. of periapsis
297.9351°
True anomaly
122.47139°
Mean anomaly
121.8738°
Eccentric anomaly
122.17284°
Mean motion
3.67473 °/min
Orbital period
97.97 mins
BSTAR
0.0010545
Loading maneuver chart data...
Computing Atmospheric mass density...

Documentation

Showing up to 5 results
|